Regional Weather Roundup
Issued by NWS

Home | Current Version | Previous Version | Text Only | Print | Product List | Glossary On
Versions: 1 2 3 4 5 6 7 8 9 10 11 12 13 14 15 16 17 18 19 20 21 22 23 24 25 26 27 28 29 30 31 32 33 34 35 36 37 38 39 40 41 42 43 44 45 46 47 48 49 50
000
ASUS43 KIND 051409
RWRIN

WEATHER ROUNDUP FOR INDIANA
NATIONAL WEATHER SERVICE INDIANAPOLIS IN
900 AM EST MON DEC 05 2016

NOTE: "FAIR" INDICATES FEW OR NO CLOUDS BELOW 12,000 FEET WITH NO
SIGNIFICANT WEATHER AND/OR OBSTRUCTIONS TO VISIBILITY.

* - STATION DOES NOT REPORT WEATHER SUCH AS PRECIPITATION OR FOG.

+ - STATION NOT QUALITY CONTROLLED BY THE NATIONAL WEATHER SERVICE.
    USE DATA WITH CAUTION...ESPECIALLY DEWPOINT AND RELATIVE
    HUMIDITY OBSERVATIONS.

INZ001>003-010>013-019-020-051500-
NORTHWEST INDIANA

CITY           SKY/WX    TMP DP  RH WIND       PRES   REMARKS
GARY /AIRPORT/ CLOUDY    34  32  93 SW5       30.04S FOG     WCI  30
KNOX *+        CLOUDY    32  21  64 SW6       30.05R WCI  26
LA PORTE +     CLOUDY   N/A N/A N/A SW3       30.05R
MICHIGAN CITY+ CLOUDY    32  32 100 S7        30.04R WCI  26
MONTICELLO +   CLOUDY    32  28  83 SW6       30.07R WCI  26
RENSSELAER +   CLOUDY    32  32 100 S6        30.06S WCI  26

$$

LMZ046-743>745-051500-
SOUTHERN LAKE MICHIGAN

STATION/POSITION TIME  TEMP    WIND        PRES    WAVE
                       AIR SEA DIR/SP/G            HT
                 (UTC) (F)     (DEG/KT/KT) (MB)    (FT)
BURNS HARBOR     1304   34     210/  8/ 12 1017.6

$$

INZ004-005-014>016-021>024-051500-
NORTH CENTRAL INDIANA

CITY           SKY/WX    TMP DP  RH WIND       PRES   REMARKS
GOSHEN         CLOUDY    33  28  81 SW8       30.05R WCI  26
LOGANSPORT +   CLOUDY    32  30  93 SW5       30.08S WCI  27
PERU/GRISSOM   CLOUDY    33  32  96 SW6       30.06R WCI  27
ROCHESTER +    CLOUDY    34  34 100 SW6       30.07R WCI  29
SOUTH BEND     CLOUDY    31  30  96 SW8       30.04R WCI  23
WARSAW +       CLOUDY    32  28  86 SW6       30.06R WCI  26

$$

INZ006>009-017-018-025>027-051500-
NORTHEAST INDIANA

CITY           SKY/WX    TMP DP  RH WIND       PRES   REMARKS
ANGOLA *+      CLOUDY    34  30  86 SW6       30.02R WCI  29
AUBURN +       CLOUDY    32  30  93 SW3       30.06R
FORT WAYNE     CLOUDY    33  29  85 SW6       30.08R WCI  28
HUNTINGTON +   CLOUDY    32  30  92 SW3       30.08R
KENDALLVILLE + CLOUDY    32  29  90 W6        30.04S WCI  26

$$

INZ028-029-035-036-043>045-051>053-051500-
WEST CENTRAL INDIANA

CITY           SKY/WX    TMP DP  RH WIND       PRES   REMARKS
CRAWFORDSVL +  CLOUDY    32  32 100 S6        30.08S WCI  26
GREENCASTLE +  CLOUDY    32  32 100 CALM      30.08F
LAFAYETTE      CLOUDY    33  32  96 SW3       30.07F
TERRE HAUTE    CLOUDY    35  30  82 S3        30.10R

$$

INZ030>032-037>040-046>048-054>057-064-065-051500-
CENTRAL INDIANA

CITY           SKY/WX    TMP DP  RH WIND       PRES   REMARKS
ANDERSON       CLOUDY    34  30  86 CALM      30.09
CP ATTERBURY + CLOUDY    36  32  87 CALM      30.11R
COLUMBUS       CLOUDY    36  32  87 CALM      30.11S
FRANKFORT +    CLOUDY    35  32  88 SW5       30.09R WCI  31
GREENWOOD *+   CLOUDY    35  32  88 SW5       30.10R WCI  31
INDIANAPOLIS   CLOUDY    35  30  82 SW5       30.09R WCI  31
-EAGLE CREEK   CLOUDY    35  29  78 CALM      30.09R
KOKOMO +       CLOUDY    33  30  88 SW5       30.08R WCI  29
MARION +       CLOUDY    32  30  92 W5        30.08S WCI  28
MT COMFORT *+  CLOUDY    34  30  86 S3        30.09R
SHELBYVILLE    CLOUDY    36  30  79 W5        30.09R
ZIONSVILLE +   CLOUDY    33  30  90 SW7       30.09R WCI  26

$$

INZ033-034-041-042-049-050-058-059-051500-
EAST CENTRAL INDIANA

CITY           SKY/WX    TMP DP  RH WIND       PRES   REMARKS
MUNCIE         CLOUDY    35  29  78 SW5       30.08R WCI  31

$$

INZ060-061-067>069-081>083-085>088-051500-
SOUTHWEST INDIANA

CITY           SKY/WX    TMP DP  RH WIND       PRES   REMARKS
EVANSVILLE     CLOUDY    38  33  82 NE10      30.09S
HUNTINGBURG *+ CLOUDY    36  30  80 E5        30.11R
WASHINGTON +   CLOUDY    36  32  85 CALM      30.10S

$$

INZ062-063-066-070>080-084-089>092-051500-
SOUTH CENTRAL AND SOUTHEAST INDIANA

CITY           SKY/WX    TMP DP  RH WIND       PRES   REMARKS
BLOOMINGTON    CLOUDY    35  29  78 CALM      30.09R
MADISON *+     CLOUDY    37  32  81 CALM      30.11R
NORTH VERNON + CLOUDY    36  36 100 CALM      30.10S
SEYMOUR +      CLOUDY    37  30  75 CALM      30.11R

$$




USA.gov is the U.S. government's official web portal to all federal, state and local government web resources and services.